LPMALPPS

Guest
Details From LPMA - Madeira
To LPPS - Porto Santo
Flight Number -
Tags Routegen Generated
Created
Modified
Stats Distance 31 nm / 58 km
Max Altitude 100 ft / 30 m
Waypoints 5
Social Downloads 17
Likes 0
Share

Download

Looking for another format? Having issues loading an existing format? Contact us
Advertisement - Login to hide

Notes

Departing runway 4 LPMA. Arriving runway 17 LPPS.

Route

LPMA +32.76_-016.71 +32.87_-016.53 +32.99_-016.35 LPPS

ID Type Via Altitude (ft/m) Position (lat/lon) Dist (leg/tot) Name
O LPMA APT - 0 / 0 32.70641 / -16.76481 - / 0 nm
+32.76_-016.71 LATLON - 100 / 30 32.75933 / -16.70613 4 / 4 nm
+32.87_-016.53 LATLON - 100 / 30 32.87343 / -16.52635 11 / 15 nm
+32.99_-016.35 LATLON - 100 / 30 32.98754 / -16.34658 11 / 27 nm
O LPPS APT - 0 / 0 33.05987 / -16.34941 4 / 31 nm

Altitude Profile

Advertisement - Login to hide

LPMA

Details ICAO LPMA (FNC)
Name Madeira/Funchal - Cristiano Ronaldo
Region Portugal
Timezone Atlantic/Madeira (UTC+1.0)
Stats Elevation 189 ft / 58 m (AMSL)
Location 32.697900° -16.774400°
Runways 1
Magnetic Variation 4.516° W

METAR

LPMA 281630Z 02013KT 9999 SCT015 25/17 Q1025

Decode

TAF

TAF LPMA 281100Z 2812/2912 03013KT 9999 SCT015 PROB30 TEMPO 2812/2906 03015G25KT PROB30 TEMPO 2900/2906 6000 -RA BKN012 BECMG 2906/2908 03017KT TEMPO 2908/2912 03020G35KT SCT015 BKN030

Decode

Departure Runways

ID Width Length Bearing (true/mag) Surface Threshold Overrun Markings Lighting
05 148 ft / 45 m 9,133 ft / 2,784 m 44.60° / 49.11° ASPHALT 482 ft / 147 m 0 ft / 0 m PREC-APP CENTERLINE EDGE THRESHOLD TDZ REIL-OMNI
23 148 ft / 45 m 9,133 ft / 2,784 m 224.61° / 229.12° ASPHALT 482 ft / 147 m 0 ft / 0 m PREC-APP CENTERLINE EDGE THRESHOLD TDZ REIL-OMNI

LPPS

Details ICAO LPPS (PXO)
Name Porto Santo
Region Portugal
Timezone Atlantic/Madeira (UTC+1.0)
Stats Elevation 340 ft / 104 m (AMSL)
Location 33.073300° -16.349800°
Runways 1
Magnetic Variation 4.353° W

METAR

LPPS 281630Z 02011KT 360V060 9999 FEW015 24/18 Q1025

Decode

TAF

TAF LPPS 281100Z 2812/2918 03012KT 9999 SCT015 PROB30 TEMPO 2821/2904 5000 -RADZ BR SCT006 BKN012 TEMPO 2904/2918 SCT014 BKN030 BECMG 2906/2908 04017KT PROB30 TEMPO 2908/2918 04020G30KT

Decode

Destination Runways

ID Width Length Bearing (true/mag) Surface Threshold Overrun Markings Lighting
18 140 ft / 43 m 9,856 ft / 3,004 m 178.12° / 182.47° ASPHALT 0 ft / 0 m 0 ft / 0 m PREC-APP EDGE THRESHOLD SALS
36 140 ft / 43 m 9,856 ft / 3,004 m 358.12° / 2.47° ASPHALT 0 ft / 0 m 0 ft / 0 m PREC-APP EDGE THRESHOLD SALS

Popular Alternatives